Tracking 29892 objects as of 21-Nov-2024
HD Live streaming from Space Station
objects crossing your sky now

STARLINK-2040

Track STARLINK-2040 now!
10-day predictions
STARLINK-2040 is classified as:


NORAD ID: 47656
Int'l Code: 2021-012AN
Perigee: 553.1 km
Apogee: 555.2 km
Inclination: 53.1 °
Period: 95.6 minutes
Semi major axis: 6925 km
RCS: Unknown
Launch date: February 16, 2021
Source: United States (US)
Launch site: AIR FORCE EASTERN TEST RANGE (AFETR)
Your satellite tracking list
Your tracking list is empty




NASA's NSSDC Master Catalog

Two Line Element Set (TLE):
1 47656U 21012AN  24325.58210755  .00024994  00000-0  16879-2 0  9994
2 47656  53.0540  19.9676 0001529  97.2731 262.8431 15.06465463208805
Source of the keplerian elements: AFSPC